Location: Doverdale
(52.2833°N, 2.2000°W)
Time: 03:36:14
(UTC+00:00)

Radarsat Rocket - Pass Details

Date: 29 October 2020
Orbit: 933 x 1492 km, 100.6° (Epoch: 27 November)

Event Time Altitude Azimuth Distance (km) Brightness Sun altitude
Rises 17:21:23 0° 169° (S) 3,691 7.1 -6.2°
Reaches altitude 10° 17:23:54 10° 172° (S) 2,703 6.4 -6.6°
Maximum altitude 17:29:48 65° 254° (WSW) 1,025 4.5 -7.4°
Drops below altitude 10° 17:35:36 10° 337° (NNW) 2,665 6.4 -8.3°
Sets 17:38:05 0° 341° (NNW) 3,636 7.1 -8.7°
